Location: Newark
(49.8348°N, 24.0280°E)
Time: 22:01:03
(UTC+00:00)

Transit 2A - Pass Details

Date: 22 January 2020
Orbit: 600 x 959 km, 66.7° (Epoch: 19 February)

Event Time Altitude Azimuth Distance (km) Brightness Sun altitude
Rises 19:34:05 0° 220° (SW) 2,888 - -43.2°
Reaches altitude 10° 19:36:22 10° 223° (SW) 1,962 - -43.5°
Maximum altitude 19:40:44 73° 308° (NW) 633 - -44.1°
Drops below altitude 10° 19:45:05 10° 34° (NNE) 1,961 - -44.8°
Sets 19:47:22 0° 36° (NE) 2,886 - -45.1°
